User: anonymous   Login
Location: Houston
(29.7631°N, 95.3631°W)
Time: 11:34:39
(UTC-05:00)
Language:

NOAA 19 - Orbit

View from above orbital plane
View from above orbital plane
View from above satellite
View from above satellite

Ground track
Ground track

The orbit data is extracted from the following two-line orbital elements,

1 33591U 09005A   21268.35905700  .00000055  00000-0  54832-4 0  9999
2 33591  99.1794 291.5201 0013464 208.7704 151.2725 14.12496858651023
Epoch (UTC): 25 September 2021 08:37:02
Eccentricity: 0.0013464
inclination: 99.1794°
perigee height: 841 km
apogee height: 860 km
right ascension of ascending node: 291.5201°
argument of perigee: 208.7704°
revolutions per day: 14.12496858
mean anomaly at epoch: 151.2725°
orbit number at epoch: 65102

The dashed part of the orbit path shows where the satellite is in the earth's shadow,  

DLR